Location: N�rnberg
(49.4489°N, 11.0797°E)
Time: 20:34:24
(UTC+01:00)

ISS - Pass Details

Date: 15 November 2017
Orbit: 402 x 407 km, 51.6° (Epoch: 20 November)

Event Time Altitude Azimuth Distance (km) Brightness Sun altitude
Exits shadow 04:55:29 29° 125° (SE) 768 -2.0 -24.4°
Drops below altitude 10° 04:57:14 10° 119° (ESE) 1,453 -0.2 -24.1°
Sets 04:59:18 0° 117° (ESE) 2,310 1.1 -23.8°
